Deer Park, WA
on Saturday, December 8, 2012

Saturday
Previous Day Next Day
Daily Summary
 ActualAverageRecord
Temperature
Mean Temperature °F 26°F  
Max Temperature 32°F 33°F 43°F (2014)
Min Temperature 8°F 20°F -5°F (2013)
Degree Days
Heating Degree Days 45 39  
Month to date heating degree days 229 302  
Since 1 July heating degree days 1966 2305  
Cooling Degree Days 0 0  
Month to date cooling degree days 0 0  
Year to date cooling degree days 232 187  
Moisture
Dew Point 15°F   
Average Humidity 79    
Maximum Humidity 100    
Minimum Humidity 58    
Precipitation
Precipitation 0.00 in 0.09 in 0.77 in (2004)
Month to date precipitation 1.40 0.70  
Year to date precipitation 25.51 20.09  
Wind
Wind Speed 3 mph   
Max Wind Speed 10 mph   
Max Gust Speed 13 mph   
Visibility 9 miles   
Events     

Key: T is trace of precipitation, MM is missing value
Source: NWS Daily Summary
Time(PST)TemperatureDew PointHumidity Pressure Visibility Wind DirectionWind SpeedGust SpeedPrecipitationEvents Conditions
12:53 AM 19.0°F 18.0°F 96% 29.99 in 10.0 miles Calm Calm - N/A   Clear
1:53 AM 18.0°F 16.0°F 92% 30.00 in 10.0 miles Calm Calm - N/A   Clear
3:08 AM 15.8°F 15.8°F 100% 29.96 in 1.5 miles Calm Calm - N/A   Clear
3:17 AM 17.6°F 15.8°F 93% 29.96 in 0.8 miles Calm Calm - N/A   Clear
3:21 AM 17.6°F 15.8°F 93% 29.96 in 2.0 miles Calm Calm - N/A   Clear
3:28 AM 15.8°F 14.0°F 93% 29.96 in 10.0 miles Calm Calm - N/A   Clear
3:53 AM 16.0°F 14.0°F 92% 30.05 in 6.0 miles NW 3.5 mph - N/A   Clear
4:53 AM 12.9°F 12.0°F 96% 30.07 in 10.0 miles Calm Calm - N/A   Clear
5:53 AM 14.0°F 12.0°F 92% 30.09 in 10.0 miles NNW 3.5 mph - N/A   Clear
6:53 AM 10.0°F 8.1°F 92% 30.12 in 3.0 miles NNE 3.5 mph - N/A   Partly Cloudy
7:53 AM 12.9°F 10.0°F 88% 30.14 in 10.0 miles WNW 3.5 mph - N/A   Clear
8:53 AM 19.0°F 18.0°F 96% 30.16 in 10.0 miles Calm Calm - N/A   Clear
9:53 AM 25.0°F 21.9°F 88% 30.18 in 10.0 miles SSE 4.6 mph - N/A   Clear
10:53 AM 28.0°F 24.1°F 85% 30.18 in 10.0 miles SSE 5.8 mph - N/A   Clear
11:53 AM 30.0°F 23.0°F 75% 30.18 in 10.0 miles South 5.8 mph - N/A   Clear
12:53 PM 32.0°F 19.0°F 59% 30.18 in 10.0 miles WNW 8.1 mph - N/A   Clear
1:53 PM 32.0°F 19.0°F 59% 30.20 in 10.0 miles WNW 8.1 mph - N/A   Clear
2:53 PM 30.0°F 18.0°F 61% 30.22 in 10.0 miles West 3.5 mph - N/A   Clear
3:53 PM 23.0°F 16.0°F 74% 30.25 in 10.0 miles NW 5.8 mph - N/A   Clear
4:53 PM 19.9°F 18.0°F 92% 30.27 in 10.0 miles WNW 4.6 mph - N/A   Partly Cloudy
5:53 PM 19.0°F 16.0°F 88% 30.29 in 10.0 miles West 3.5 mph - N/A   Clear
6:53 PM 14.0°F 12.9°F 95% 30.32 in 10.0 miles NW 3.5 mph - N/A   Clear
7:53 PM 10.0°F 8.1°F 92% 30.35 in 10.0 miles NNW 4.6 mph - N/A   Clear
8:53 PM 10.9°F 8.1°F 88% 30.35 in 10.0 miles ENE 3.5 mph - N/A   Clear
9:53 PM 10.0°F 7.0°F 87% 30.35 in 10.0 miles Calm Calm - N/A   Clear
10:53 PM 10.0°F 9.0°F 95% 30.36 in 10.0 miles Calm Calm - N/A   Clear
11:53 PM 10.9°F 9.0°F 92% 30.37 in 10.0 miles Calm Calm - N/A   Clear
Moon Phase
Dec. 08 Dec. 13 Dec. 20 Dec. 28 Jan. 04
Sunrise:07:26 AM (PST) Moon Rise:01:37 AM (PST)12/8
Sunset:03:56 PM (PST) Moon Set:12:46 PM (PST)12/8

Copyright © 2014 The Weather Underground, Inc.